BWA422 TTPP-TTCP

Flight info

Callsign BWA422
Flight time 0h 14m
Altitude 7000
Route POS R515 TAB
Aircraft B38M/M-SDE1FGHILORVWXY/HB1

Departure

Time 2026-05-07 23:09
Airport Piarco International Airport (TTPP)

Arrival

Time 2026-05-07 23:23
Airport A.N.R. Robinson International Airport (TTCP)
Time Latitude Longitude Altitude Speed Heading
2026-05-07 22:48 10.60063 -61.33864 52 ft 0 kts 236°
2026-05-07 23:01 10.60072 -61.33850 48 ft 4 kts 234°
2026-05-07 23:01 10.60086 -61.33827 49 ft 4 kts 244°
2026-05-07 23:02 10.60096 -61.33802 48 ft 4 kts 249°
2026-05-07 23:02 10.60108 -61.33779 48 ft 4 kts 220°
2026-05-07 23:02 10.60111 -61.33774 49 ft 1 kts 143°
2026-05-07 23:02 10.60115 -61.33777 49 ft 0 kts 143°
2026-05-07 23:05 10.60114 -61.33776 49 ft 1 kts 143°
2026-05-07 23:05 10.60083 -61.33753 50 ft 11 kts 145°
2026-05-07 23:05 10.60000 -61.33735 52 ft 14 kts 179°
2026-05-07 23:05 10.59896 -61.33735 46 ft 16 kts 180°
2026-05-07 23:06 10.59778 -61.33734 52 ft 18 kts 176°
2026-05-07 23:06 10.59703 -61.33810 52 ft 19 kts 275°
2026-05-07 23:06 10.59706 -61.33950 52 ft 21 kts 269°
2026-05-07 23:06 10.59706 -61.34102 52 ft 23 kts 270°
2026-05-07 23:07 10.59707 -61.34273 51 ft 25 kts 270°
2026-05-07 23:07 10.59707 -61.34456 52 ft 27 kts 270°
2026-05-07 23:07 10.59621 -61.34531 50 ft 19 kts 182°
2026-05-07 23:07 10.59535 -61.34503 46 ft 8 kts 90°
2026-05-07 23:08 10.59534 -61.34493 52 ft 0 kts 89°
2026-05-07 23:08 10.59534 -61.34492 52 ft 1 kts 89°
2026-05-07 23:08 10.59535 -61.34417 52 ft 42 kts 89°
2026-05-07 23:08 10.59538 -61.33800 52 ft 129 kts 90°
2026-05-07 23:09 10.59544 -61.32660 216 ft 186 kts 89°
2026-05-07 23:09 10.59551 -61.31291 1174 ft 198 kts 88°
2026-05-07 23:09 10.59544 -61.29846 2207 ft 211 kts 88°
2026-05-07 23:09 10.59500 -61.28278 2998 ft 230 kts 89°
2026-05-07 23:10 10.59472 -61.26613 3740 ft 248 kts 89°
2026-05-07 23:10 10.59512 -61.24815 4617 ft 258 kts 77°
2026-05-07 23:10 10.60358 -61.23243 5749 ft 259 kts 44°
2026-05-07 23:10 10.61950 -61.22358 6393 ft 272 kts 14°
2026-05-07 23:11 10.63861 -61.22150 6540 ft 275 kts 11°
2026-05-07 23:11 10.65626 -61.21518 6668 ft 273 kts 26°
2026-05-07 23:11 10.67377 -61.20764 6797 ft 275 kts 23°
2026-05-07 23:11 10.69158 -61.20042 6912 ft 275 kts 23°
2026-05-07 23:12 10.70945 -61.19334 6955 ft 275 kts 22°
2026-05-07 23:12 10.72714 -61.18642 6964 ft 275 kts 22°
2026-05-07 23:12 10.74510 -61.17947 6967 ft 274 kts 21°
2026-05-07 23:12 10.76303 -61.17257 6952 ft 275 kts 21°
2026-05-07 23:13 10.78071 -61.16579 6970 ft 275 kts 22°
2026-05-07 23:13 10.79870 -61.15889 6965 ft 275 kts 22°
2026-05-07 23:13 10.81652 -61.15206 6965 ft 276 kts 22°
2026-05-07 23:13 10.83433 -61.14524 6965 ft 275 kts 22°
2026-05-07 23:14 10.85227 -61.13837 6964 ft 275 kts 22°
2026-05-07 23:14 10.87006 -61.13156 6960 ft 276 kts 22°
2026-05-07 23:14 10.88796 -61.12470 6966 ft 274 kts 22°
2026-05-07 23:14 10.90578 -61.11787 6718 ft 272 kts 21°
2026-05-07 23:15 10.92352 -61.11108 6484 ft 268 kts 21°
2026-05-07 23:15 10.94068 -61.10450 6239 ft 265 kts 22°
2026-05-07 23:15 10.95793 -61.09789 5947 ft 264 kts 21°
2026-05-07 23:15 10.97508 -61.09134 5661 ft 262 kts 22°
2026-05-07 23:16 10.99209 -61.08482 5374 ft 260 kts 22°
2026-05-07 23:16 11.00878 -61.07841 5079 ft 259 kts 22°
2026-05-07 23:16 11.02562 -61.07196 4791 ft 257 kts 22°
2026-05-07 23:16 11.04236 -61.06553 4541 ft 254 kts 22°
2026-05-07 23:17 11.05870 -61.05927 4407 ft 247 kts 22°
2026-05-07 23:17 11.07452 -61.05320 4280 ft 239 kts 22°
2026-05-07 23:17 11.08985 -61.04732 4158 ft 231 kts 22°
2026-05-07 23:17 11.10450 -61.04170 4019 ft 224 kts 22°
2026-05-07 23:18 11.11888 -61.03619 3863 ft 215 kts 22°
2026-05-07 23:18 11.13260 -61.03093 3730 ft 203 kts 22°
2026-05-07 23:18 11.14556 -61.02591 3620 ft 196 kts 24°
2026-05-07 23:18 11.15596 -61.01772 3379 ft 193 kts 56°
2026-05-07 23:19 11.16071 -61.00505 3116 ft 193 kts 79°
2026-05-07 23:19 11.16126 -60.99135 2833 ft 194 kts 90°
2026-05-07 23:19 11.16026 -60.97779 2580 ft 194 kts 92°
2026-05-07 23:19 11.15918 -60.96405 2309 ft 193 kts 93°
2026-05-07 23:20 11.15818 -60.95059 2062 ft 187 kts 92°
2026-05-07 23:20 11.15726 -60.93789 1814 ft 175 kts 92°
2026-05-07 23:20 11.15641 -60.92592 1594 ft 160 kts 92°
2026-05-07 23:20 11.15563 -60.91535 1427 ft 144 kts 92°
2026-05-07 23:21 11.15493 -60.90524 1206 ft 141 kts 92°
2026-05-07 23:21 11.15421 -60.89530 1031 ft 142 kts 92°
2026-05-07 23:21 11.15348 -60.88529 866 ft 141 kts 92°
2026-05-07 23:21 11.15277 -60.87524 670 ft 144 kts 93°
2026-05-07 23:22 11.15202 -60.86491 538 ft 147 kts 92°
2026-05-07 23:22 11.15124 -60.85424 318 ft 152 kts 92°
2026-05-07 23:22 11.15049 -60.84396 98 ft 142 kts 93°
2026-05-07 23:22 11.14979 -60.83449 39 ft 118 kts 93°
2026-05-07 23:23 11.14939 -60.82837 39 ft 58 kts 94°
2026-05-07 23:23 11.14921 -60.82600 37 ft 19 kts 94°
2026-05-07 23:23 11.14894 -60.82489 37 ft 15 kts 114°
2026-05-07 23:23 11.14880 -60.82409 35 ft 7 kts 51°
2026-05-07 23:24 11.14904 -60.82403 36 ft 1 kts 330°
2026-05-07 23:24 11.14908 -60.82424 36 ft 9 kts 272°
2026-05-07 23:24 11.14916 -60.82543 37 ft 23 kts 274°
2026-05-07 23:24 11.14929 -60.82722 38 ft 27 kts 273°
2026-05-07 23:25 11.14944 -60.82915 39 ft 28 kts 274°
2026-05-07 23:25 11.14959 -60.83121 40 ft 30 kts 274°
2026-05-07 23:25 11.14975 -60.83337 39 ft 32 kts 274°
2026-05-07 23:25 11.14990 -60.83549 38 ft 29 kts 274°
2026-05-07 23:26 11.15008 -60.83751 35 ft 27 kts 283°
2026-05-07 23:26 11.15107 -60.83884 37 ft 22 kts 290°
2026-05-07 23:26 11.15117 -60.83995 37 ft 9 kts 275°
2026-05-07 23:26 11.15126 -60.84005 35 ft 5 kts 335°
2026-05-07 23:27 11.15186 -60.84003 38 ft 0 kts